When you browse on this site, cookies collect data to enhance your experience and personalize the content and advertising you see.
Visit our Privacy Policy to learn more. By continuing to use the site, you agree to this use of cookies and data.
  • In Portugal
  • List of Countries
  • For 7 days
  • Water Temperature
  • Satellite Maps
  • Weather Map
  • Weather Widgets
  • user-avatar
    Login

    Hourly Weather Timonova

    Today, 20 May, Monday

    Time Temperature Precipitation Wind Pressure Humidity
    00:00 +12°C° 0 mm 2 mps 745 mmHg 82%
    01:00 +12°C° 0 mm 2 mps 745 mmHg 82%
    02:00 +10°C° 0 mm 2 mps 746 mmHg 82%
    03:00 +10°C° 0 mm 2 mps 746 mmHg 82%
    04:00 +11°C° 0 mm 1 mps 746 mmHg 81%
    05:00 +12°C° 0 mm 1 mps 746 mmHg 80%
    06:00 +13°C° 0 mm 1 mps 746 mmHg 75%
    07:00 +15°C° 0 mm 1 mps 747 mmHg 69%
    08:00 +18°C° 0 mm 1 mps 747 mmHg 63%
    09:00 +19°C° 0 mm 1 mps 747 mmHg 60%
    10:00 +19°C° 0 mm 0 mps 747 mmHg 57%
    11:00 +20°C° 0 mm 0 mps 747 mmHg 54%
    12:00 +20°C° 0 mm 0 mps 747 mmHg 52%
    13:00 +23°C° 0 mm 1 mps 747 mmHg 49%
    14:00 +23°C° 0 mm 1 mps 746 mmHg 47%
    15:00 +23°C° 0 mm 1 mps 746 mmHg 50%
    16:00 +23°C° 0 mm 1 mps 746 mmHg 52%
    17:00 +23°C° 0 mm 1 mps 746 mmHg 55%
    18:00 +21°C° 0 mm 1 mps 746 mmHg 60%
    19:00 +19°C° 0 mm 1 mps 746 mmHg 65%
    20:00 +15°C° 0 mm 1 mps 746 mmHg 70%
    21:00 +15°C° 0 mm 2 mps 746 mmHg 72%
    22:00 +14°C° 0 mm 2 mps 746 mmHg 75%
    23:00 +13°C° 0 mm 2 mps 746 mmHg 78%

    Tomorrow, 21 May, Tuesday

    Time Temperature Precipitation Wind Pressure Humidity
    00:00 +13°C° 0 mm 2 mps 747 mmHg 81%
    01:00 +12°C° 0 mm 2 mps 747 mmHg 84%
    02:00 +12°C° 0 mm 2 mps 747 mmHg 86%
    03:00 +12°C° 0 mm 2 mps 747 mmHg 86%
    04:00 +12°C° 0 mm 2 mps 747 mmHg 86%
    05:00 +12°C° 0 mm 2 mps 747 mmHg 86%
    06:00 +14°C° 0 mm 2 mps 747 mmHg 79%
    07:00 +16°C° 0 mm 2 mps 747 mmHg 73%
    08:00 +17°C° 0 mm 3 mps 747 mmHg 67%
    09:00 +18°C° 0 mm 3 mps 746 mmHg 64%
    10:00 +19°C° 0 mm 4 mps 746 mmHg 60%
    11:00 +20°C° 0 mm 4 mps 746 mmHg 56%
    12:00 +20°C° 0 mm 4 mps 746 mmHg 56%
    13:00 +21°C° 0 mm 4 mps 745 mmHg 55%
    14:00 +21°C° 0 mm 4 mps 745 mmHg 55%
    15:00 +21°C° 0 mm 4 mps 745 mmHg 59%
    16:00 +20°C° 0 mm 3 mps 744 mmHg 63%
    17:00 +20°C° 0 mm 3 mps 744 mmHg 66%
    18:00 +18°C° 0 mm 3 mps 744 mmHg 72%
    19:00 +17°C° 0 mm 3 mps 743 mmHg 77%
    20:00 +14°C° 0 mm 3 mps 743 mmHg 82%
    21:00 +13°C° 0 mm 3 mps 743 mmHg 85%
    22:00 +13°C° 0 mm 3 mps 743 mmHg 88%
    23:00 +12°C° 0 mm 3 mps 743 mmHg 90%

    Day after tomorrow, 22 May, Wednesday

    Time Temperature Precipitation Wind Pressure Humidity
    00:00 +12°C° 0 mm 3 mps 743 mmHg 91%
    01:00 +12°C° 0 mm 3 mps 742 mmHg 92%
    02:00 +11°C° 0 mm 3 mps 742 mmHg 92%
    03:00 +12°C° 0 mm 3 mps 742 mmHg 91%
    04:00 +12°C° 0 mm 3 mps 742 mmHg 90%
    05:00 +13°C° 0 mm 2 mps 741 mmHg 89%
    06:00 +14°C° 0 mm 3 mps 741 mmHg 84%
    07:00 +17°C° 0 mm 3 mps 741 mmHg 79%
    08:00 +19°C° 0 mm 3 mps 741 mmHg 74%
    09:00 +20°C° 0.3 mm 3 mps 741 mmHg 72%
    10:00 +21°C° 0.3 mm 4 mps 740 mmHg 69%
    11:00 +22°C° 0.3 mm 4 mps 740 mmHg 67%
    12:00 +22°C° 0.6 mm 4 mps 740 mmHg 68%
    13:00 +22°C° 0.6 mm 5 mps 739 mmHg 70%
    14:00 +22°C° 0.6 mm 5 mps 739 mmHg 71%
    15:00 +22°C° 0.5 mm 4 mps 739 mmHg 75%
    16:00 +21°C° 0.5 mm 3 mps 738 mmHg 79%
    17:00 +21°C° 0.5 mm 2 mps 738 mmHg 84%
    18:00 +20°C° 0.6 mm 2 mps 738 mmHg 86%
    19:00 +18°C° 0.6 mm 3 mps 738 mmHg 89%
    20:00 +17°C° 0.6 mm 3 mps 738 mmHg 92%
    21:00 +17°C° 0.4 mm 3 mps 738 mmHg 93%
    22:00 +16°C° 0.4 mm 3 mps 737 mmHg 94%
    23:00 +16°C° 0.4 mm 3 mps 737 mmHg 95%

    23 May, Thursday

    Time Temperature Precipitation Wind Pressure Humidity
    00:00 +14°C° 0 mm 3 mps 737 mmHg 96%
    01:00 +14°C° 0 mm 3 mps 737 mmHg 96%
    02:00 +14°C° 0 mm 3 mps 737 mmHg 96%
    03:00 +15°C° 0 mm 2 mps 737 mmHg 96%
    04:00 +15°C° 0 mm 2 mps 737 mmHg 95%
    05:00 +15°C° 0 mm 2 mps 736 mmHg 95%
    06:00 +17°C° 0 mm 2 mps 736 mmHg 90%
    07:00 +18°C° 0 mm 2 mps 736 mmHg 85%
    08:00 +20°C° 0 mm 3 mps 736 mmHg 80%
    09:00 +21°C° 0.4 mm 3 mps 736 mmHg 75%
    10:00 +22°C° 0.4 mm 3 mps 736 mmHg 70%
    11:00 +24°C° 0.4 mm 3 mps 736 mmHg 65%
    12:00 +25°C° 0.2 mm 3 mps 736 mmHg 63%
    13:00 +25°C° 0.2 mm 3 mps 735 mmHg 62%
    14:00 +26°C° 0.2 mm 3 mps 735 mmHg 60%
    15:00 +25°C° 0.7 mm 3 mps 735 mmHg 63%
    16:00 +25°C° 0.7 mm 2 mps 735 mmHg 66%
    17:00 +25°C° 0.7 mm 1 mps 735 mmHg 69%
    18:00 +23°C° 0.5 mm 1 mps 735 mmHg 73%
    19:00 +21°C° 0.5 mm 1 mps 735 mmHg 77%
    20:00 +19°C° 0.5 mm 1 mps 735 mmHg 80%
    21:00 +18°C° 0 mm 1 mps 735 mmHg 81%
    22:00 +18°C° 0 mm 1 mps 735 mmHg 83%
    23:00 +16°C° 0 mm 1 mps 735 mmHg 84%

    24 May, Friday

    Time Temperature Precipitation Wind Pressure Humidity
    00:00 +16°C° 0.1 mm 1 mps 735 mmHg 86%
    01:00 +16°C° 0.1 mm 1 mps 735 mmHg 88%
    02:00 +15°C° 0.1 mm 1 mps 735 mmHg 90%
    03:00 +15°C° 0.3 mm 1 mps 735 mmHg 91%
    04:00 +16°C° 0.3 mm 1 mps 735 mmHg 91%
    05:00 +15°C° 0.3 mm 0 mps 735 mmHg 92%
    06:00 +18°C° 0.3 mm 1 mps 735 mmHg 89%
    07:00 +19°C° 0.3 mm 1 mps 736 mmHg 85%
    08:00 +20°C° 0.3 mm 2 mps 736 mmHg 82%
    09:00 +20°C° 1.4 mm 2 mps 736 mmHg 78%
    10:00 +21°C° 1.4 mm 2 mps 735 mmHg 75%
    11:00 +23°C° 1.4 mm 2 mps 735 mmHg 71%
    12:00 +23°C° 1.6 mm 2 mps 735 mmHg 70%
    13:00 +23°C° 1.6 mm 2 mps 735 mmHg 70%
    14:00 +23°C° 1.6 mm 2 mps 735 mmHg 69%
    15:00 +22°C° 0.7 mm 3 mps 735 mmHg 73%
    16:00 +21°C° 0.7 mm 3 mps 734 mmHg 77%
    17:00 +21°C° 0.7 mm 3 mps 734 mmHg 81%
    18:00 +20°C° 0.6 mm 3 mps 734 mmHg 85%
    19:00 +18°C° 0.6 mm 3 mps 734 mmHg 89%
    20:00 +17°C° 0.6 mm 3 mps 734 mmHg 92%
    21:00 +17°C° 0.3 mm 3 mps 734 mmHg 93%
    22:00 +16°C° 0.3 mm 3 mps 734 mmHg 93%
    23:00 +16°C° 0.3 mm 2 mps 733 mmHg 94%

    25 May, Saturday

    Time Temperature Precipitation Wind Pressure Humidity
    00:00 +15°C° 0 mm 2 mps 733 mmHg 93%
    01:00 +15°C° 0 mm 2 mps 733 mmHg 93%
    02:00 +15°C° 0 mm 2 mps 733 mmHg 93%
    03:00 +15°C° 0 mm 2 mps 733 mmHg 92%
    04:00 +15°C° 0 mm 2 mps 733 mmHg 92%
    05:00 +16°C° 0 mm 2 mps 733 mmHg 92%
    06:00 +17°C° 0.1 mm 2 mps 733 mmHg 89%
    07:00 +18°C° 0.1 mm 2 mps 733 mmHg 86%
    08:00 +20°C° 0.1 mm 2 mps 733 mmHg 84%
    09:00 +21°C° 0.8 mm 3 mps 733 mmHg 79%
    10:00 +22°C° 0.8 mm 4 mps 732 mmHg 75%
    11:00 +22°C° 0.8 mm 4 mps 732 mmHg 71%
    12:00 +23°C° 0.8 mm 4 mps 732 mmHg 71%
    13:00 +23°C° 0.8 mm 4 mps 732 mmHg 71%
    14:00 +23°C° 0.8 mm 4 mps 732 mmHg 72%
    15:00 +22°C° 0.4 mm 3 mps 732 mmHg 73%
    16:00 +23°C° 0.4 mm 2 mps 732 mmHg 75%
    17:00 +21°C° 0.4 mm 2 mps 731 mmHg 77%
    18:00 +20°C° 1.6 mm 2 mps 731 mmHg 80%
    19:00 +19°C° 1.6 mm 2 mps 731 mmHg 84%
    20:00 +17°C° 1.6 mm 2 mps 731 mmHg 88%
    21:00 +17°C° 0.3 mm 2 mps 732 mmHg 90%
    22:00 +16°C° 0.3 mm 2 mps 732 mmHg 92%
    23:00 +16°C° 0.3 mm 2 mps 732 mmHg 94%
    Show more